Location: Staunton
(38.1490°N, 79.0720°W)
Time: 14:22:26
(UTC-04:00)

ISS - Pass Details

Date: 19 May 2017
Orbit: 402 x 408 km, 51.6° (Epoch: 29 May)

Event Time Altitude Azimuth Distance (km) Brightness Sun altitude
Rises 04:52:11 0° 320° (NW) 2,326 0.0 -12.5°
Reaches altitude 10° 04:55:26 10° 355° (N) 1,462 -0.6 -12.0°
Maximum altitude 04:56:41 12° 17° (NNE) 1,365 -0.3 -11.8°
Drops below altitude 10° 04:57:55 10° 39° (NE) 1,459 0.4 -11.6°
Sets 05:01:09 0° 74° (ENE) 2,314 1.5 -11.1°
